Home > Weather > Kyiv > Past weeks

Flag for Ukraine Weather for the Past 2 Weeks in Kyiv, Ukraine

Now
36 °F

Fog.


Feels Like: 29 °F
Forecast: 36 / 42 °F
Wind: 8 mph from South

Location: Kyiv

Current Time: Feb 10, 2016 at 5:10:25 AM

Latest Report: Feb 10, 2016 at 4:30 AM


Visibility: 2 mi

Pressure: 29.86 "Hg

Humidity: 100%

Dew point: 36 °F

Location of KyivLocation

Historic Weather in Kyiv — Graph

°F

Kyiv Temperature Yesterday

Maximum temperature yesterday: 37 °F (at 11:30 AM)
Minimum temperature yesterday: 34 °F (at 12:00 AM)
Average temperature yesterday: 35 °F

High & Low Weather Summary for the Past Weeks

 TemperatureHumidityPressure
High48 °F (Feb 3, 10:30 AM)100% (Jan 27, 6:00 AM)30.33 "Hg (Jan 27, 6:00 AM)
Low19 °F (Jan 26, 3:00 AM)48% (Feb 6, 2:30 PM)29.53 "Hg (Jan 31, 4:30 PM)
Average34 °F82%30.01 "Hg
* Reported Jan 26 3:00 AM — Feb 10 3:30 AM, Kyiv, Weather by CustomWeather, © 2016

Note: Actual official high and low records may vary slightly from our data, if they occured in-between our weather recording intervals... More about our weather records

Advertising

Kyiv Weather History for the Previous 24 Hours

 ConditionsComfort  
Time TempWeatherWind HumidityBarometerVisibility
3:30 AM
Wed, Feb 10
36 °FFog.8 mph100%29.89 "Hg2 mi
2:30 AM36 °FFog.13 mph100%29.86 "Hg2 mi
2:00 AM36 °FFog.10 mph100%29.89 "Hg3 mi
1:30 AM36 °FLow clouds.8 mph100%29.89 "Hg4 mi
1:00 AM36 °FLow clouds.8 mph100%29.89 "Hg4 mi
12:30 AM36 °FLow clouds.8 mph100%29.89 "Hg4 mi
11:30 PM
Tue, Feb 9
37 °FPassing clouds.13 mph93%29.92 "HgN/A
11:00 PM37 °FPassing clouds.8 mph93%29.92 "HgN/A
10:30 PM37 °FPassing clouds.8 mph87%29.89 "HgN/A
10:00 PM36 °FPassing clouds.8 mph93%29.92 "HgN/A
9:30 PM36 °FPassing clouds.8 mph93%29.92 "HgN/A
9:00 PM36 °FPassing clouds.8 mph93%29.92 "HgN/A
8:30 PM36 °FPassing clouds.10 mph93%29.92 "HgN/A
8:00 PM36 °FPassing clouds.10 mph93%29.92 "HgN/A
7:30 PM36 °FPassing clouds.8 mph87%29.92 "HgN/A
7:00 PM36 °FPassing clouds.8 mph87%29.92 "HgN/A
6:30 PM36 °FPassing clouds.6 mph87%29.95 "HgN/A
6:00 PM36 °FPassing clouds.8 mph87%29.92 "HgN/A
5:30 PM36 °FPartly cloudy.6 mph87%29.92 "HgN/A
5:00 PM37 °FMore clouds than sun.10 mph81%29.92 "HgN/A
4:30 PM37 °FMore clouds than sun.10 mph81%29.95 "HgN/A
4:00 PM36 °FMore clouds than sun.10 mph87%29.95 "HgN/A
3:00 PM36 °FLight rain. Overcast.8 mph93%29.95 "HgN/A
2:30 PM36 °FLight rain. Overcast.10 mph93%29.95 "HgN/A
2:00 PM36 °FSprinkles. Partly sunny.8 mph93%29.95 "Hg6 mi
1:30 PM36 °FSprinkles. Broken clouds.10 mph87%29.95 "HgN/A
12:30 PM37 °FPartly sunny.13 mph75%29.98 "HgN/A
12:00 PM36 °FPartly sunny.13 mph81%29.98 "HgN/A
11:30 AM37 °FPartly sunny.13 mph75%29.98 "HgN/A
11:00 AM36 °FPartly sunny.10 mph81%29.98 "HgN/A
10:00 AM36 °FPartly sunny.10 mph81%30.01 "HgN/A
9:30 AM36 °FPartly sunny.13 mph81%30.01 "HgN/A
9:00 AM36 °FPartly sunny.15 mph81%30.01 "HgN/A
8:00 AM34 °FPartly sunny.10 mph87%30.01 "HgN/A
7:30 AM34 °FPartly sunny.10 mph87%30.01 "HgN/A
7:00 AM34 °FOvercast.10 mph81%30.01 "HgN/A
6:30 AM34 °FOvercast.10 mph81%30.01 "HgN/A
5:30 AM34 °FOvercast.10 mph81%30.04 "HgN/A
5:00 AM34 °FOvercast.10 mph81%30.04 "HgN/A
Weather by CustomWeather, © 2016

See weather overviewHow to use our weather pages